owner,sensor,date,latitude,longitude,vertical_datum,sea_water_practical_salinity,qcFlag 
DISL,ioos:station:DISL:PPTA:1,2017-08-01T00:00:00Z,30.2791,-87.5561,1.348,17.86,1111122 
DISL,ioos:station:DISL:PPTA:1,2017-08-01T00:30:00Z,30.2791,-87.5561,1.327,15.36,1111122 
DISL,ioos:station:DISL:PPTA:1,2017-08-01T01:00:00Z,30.2791,-87.5561,1.32,19.21,1111122 
DISL,ioos:station:DISL:PPTA:1,2017-08-01T01:30:00Z,30.2791,-87.5561,1.321,16.46,1111122 
DISL,ioos:station:DISL:PPTA:1,2017-08-01T02:00:00Z,30.2791,-87.5561,1.324,18.01,1111122 
DISL,ioos:station:DISL:PPTA:1,2017-08-01T02:30:00Z,30.2791,-87.5561,1.339,17.94,1111122 
DISL,ioos:station:DISL:PPTA:1,2017-08-01T03:00:00Z,30.2791,-87.5561,1.328,16.54,1111122 
DISL,ioos:station:DISL:PPTA:1,2017-08-01T03:30:00Z,30.2791,-87.5561,1.355,22.88,1111122 
DISL,ioos:station:DISL:PPTA:1,2017-08-01T04:00:00Z,30.2791,-87.5561,1.342,22.63,1111122 
DISL,ioos:station:DISL:PPTA:1,2017-08-01T04:30:00Z,30.2791,-87.5561,1.343,25.8,1111122 
DISL,ioos:station:DISL:PPTA:1,2017-08-01T05:00:00Z,30.2791,-87.5561,1.371,29.23,1111122 
DISL,ioos:station:DISL:PPTA:1,2017-08-01T05:30:00Z,30.2791,-87.5561,1.368,28.34,1111122 
DISL,ioos:station:DISL:PPTA:1,2017-08-01T06:00:00Z,30.2791,-87.5561,1.386,29.25,1111122 
DISL,ioos:station:DISL:PPTA:1,2017-08-01T06:30:00Z,30.2791,-87.5561,1.39,28.8,1111122 
DISL,ioos:station:DISL:PPTA:1,2017-08-01T07:00:00Z,30.2791,-87.5561,1.415,29.38,1111122 
DISL,ioos:station:DISL:PPTA:1,2017-08-01T07:30:00Z,30.2791,-87.5561,1.425,29.38,1111122 
DISL,ioos:station:DISL:PPTA:1,2017-08-01T08:00:00Z,30.2791,-87.5561,1.439,29.36,1111122 
DISL,ioos:station:DISL:PPTA:1,2017-08-01T08:30:00Z,30.2791,-87.5561,1.445,29.16,1111122 
DISL,ioos:station:DISL:PPTA:1,2017-08-01T09:00:00Z,30.2791,-87.5561,1.461,28.52,1111122 
DISL,ioos:station:DISL:PPTA:1,2017-08-01T09:30:00Z,30.2791,-87.5561,1.458,28.96,1111122 
DISL,ioos:station:DISL:PPTA:1,2017-08-01T10:00:00Z,30.2791,-87.5561,1.471,29.38,1111122 
DISL,ioos:station:DISL:PPTA:1,2017-08-01T10:30:00Z,30.2791,-87.5561,1.483,28.66,1111122 
DISL,ioos:station:DISL:PPTA:1,2017-08-01T11:00:00Z,30.2791,-87.5561,1.497,28.86,1111122 
DISL,ioos:station:DISL:PPTA:1,2017-08-01T11:30:00Z,30.2791,-87.5561,1.487,29.14,1111122 
DISL,ioos:station:DISL:PPTA:1,2017-08-01T12:00:00Z,30.2791,-87.5561,1.498,28.81,1111122 
DISL,ioos:station:DISL:PPTA:1,2017-08-01T12:30:00Z,30.2791,-87.5561,1.508,29.11,1111122 
DISL,ioos:station:DISL:PPTA:1,2017-08-01T13:00:00Z,30.2791,-87.5561,1.509,28.62,1111122 
DISL,ioos:station:DISL:PPTA:1,2017-08-01T13:30:00Z,30.2791,-87.5561,1.491,28.68,1111122 
DISL,ioos:station:DISL:PPTA:1,2017-08-01T14:00:00Z,30.2791,-87.5561,1.487,29.01,1111122 
DISL,ioos:station:DISL:PPTA:1,2017-08-01T14:30:00Z,30.2791,-87.5561,1.479,27.61,1111122 
DISL,ioos:station:DISL:PPTA:1,2017-08-01T15:00:00Z,30.2791,-87.5561,1.462,28.17,1111122 
DISL,ioos:station:DISL:PPTA:1,2017-08-01T15:30:00Z,30.2791,-87.5561,1.455,25.68,1111122 
DISL,ioos:station:DISL:PPTA:1,2017-08-01T16:00:00Z,30.2791,-87.5561,1.461,26.31,1111122 
DISL,ioos:station:DISL:PPTA:1,2017-08-01T16:30:00Z,30.2791,-87.5561,1.449,23.63,1111122 
DISL,ioos:station:DISL:PPTA:1,2017-08-01T17:00:00Z,30.2791,-87.5561,1.417,23.06,1111122 
DISL,ioos:station:DISL:PPTA:1,2017-08-01T17:30:00Z,30.2791,-87.5561,1.428,21.34,1111122 
DISL,ioos:station:DISL:PPTA:1,2017-08-01T18:00:00Z,30.2791,-87.5561,1.415,20.31,1111122 
DISL,ioos:station:DISL:PPTA:1,2017-08-01T18:30:00Z,30.2791,-87.5561,1.404,20.58,1111122 
DISL,ioos:station:DISL:PPTA:1,2017-08-01T19:00:00Z,30.2791,-87.5561,1.372,19.68,1111122 
DISL,ioos:station:DISL:PPTA:1,2017-08-01T19:30:00Z,30.2791,-87.5561,1.349,18.77,1111122 
DISL,ioos:station:DISL:PPTA:1,2017-08-01T20:00:00Z,30.2791,-87.5561,1.359,17.61,1111122 
DISL,ioos:station:DISL:PPTA:1,2017-08-01T20:30:00Z,30.2791,-87.5561,1.351,17.73,1111122 
DISL,ioos:station:DISL:PPTA:1,2017-08-01T21:00:00Z,30.2791,-87.5561,1.335,17.87,1111122 
DISL,ioos:station:DISL:PPTA:1,2017-08-01T21:30:00Z,30.2791,-87.5561,1.317,17.77,1111122 
DISL,ioos:station:DISL:PPTA:1,2017-08-01T22:00:00Z,30.2791,-87.5561,1.309,17.83,1111122 
DISL,ioos:station:DISL:PPTA:1,2017-08-01T22:30:00Z,30.2791,-87.5561,1.321,15.45,1111122 
DISL,ioos:station:DISL:PPTA:1,2017-08-01T23:00:00Z,30.2791,-87.5561,1.309,15.26,1111122 
DISL,ioos:station:DISL:PPTA:1,2017-08-01T23:30:00Z,30.2791,-87.5561,1.312,17.54,1111122 
DISL,ioos:station:DISL:PPTA:1,2017-08-02T00:00:00Z,30.2791,-87.5561,1.3,14.93,1111122 
DISL,ioos:station:DISL:PPTA:1,2017-08-02T00:30:00Z,30.2791,-87.5561,1.296,16.06,1111122 
DISL,ioos:station:DISL:PPTA:1,2017-08-02T01:00:00Z,30.2791,-87.5561,1.296,19.82,1111122 
DISL,ioos:station:DISL:PPTA:1,2017-08-02T01:30:00Z,30.2791,-87.5561,1.306,17.15,1111122 
DISL,ioos:station:DISL:PPTA:1,2017-08-02T02:00:00Z,30.2791,-87.5561,1.307,18.06,1111122 
DISL,ioos:station:DISL:PPTA:1,2017-08-02T02:30:00Z,30.2791,-87.5561,1.303,15.47,1111122 
DISL,ioos:station:DISL:PPTA:1,2017-08-02T03:00:00Z,30.2791,-87.5561,1.291,18.77,1111122 
DISL,ioos:station:DISL:PPTA:1,2017-08-02T03:30:00Z,30.2791,-87.5561,1.305,16.39,1111122 
DISL,ioos:station:DISL:PPTA:1,2017-08-02T04:00:00Z,30.2791,-87.5561,1.301,22.65,1111122 
DISL,ioos:station:DISL:PPTA:1,2017-08-02T04:30:00Z,30.2791,-87.5561,1.323,25.48,1111122 
DISL,ioos:station:DISL:PPTA:1,2017-08-02T05:00:00Z,30.2791,-87.5561,1.318,26.88,1111122 
DISL,ioos:station:DISL:PPTA:1,2017-08-02T05:30:00Z,30.2791,-87.5561,1.34,27.68,1111122 
DISL,ioos:station:DISL:PPTA:1,2017-08-02T06:00:00Z,30.2791,-87.5561,1.376,27.74,1111122 
DISL,ioos:station:DISL:PPTA:1,2017-08-02T06:30:00Z,30.2791,-87.5561,1.383,26.02,1111122 
DISL,ioos:station:DISL:PPTA:1,2017-08-02T07:00:00Z,30.2791,-87.5561,1.387,26.23,1111122 
DISL,ioos:station:DISL:PPTA:1,2017-08-02T07:30:00Z,30.2791,-87.5561,1.403,26.88,1111122 
DISL,ioos:station:DISL:PPTA:1,2017-08-02T08:00:00Z,30.2791,-87.5561,1.421,26.54,1111122 
DISL,ioos:station:DISL:PPTA:1,2017-08-02T08:30:00Z,30.2791,-87.5561,1.436,28.19,1111122 
DISL,ioos:station:DISL:PPTA:1,2017-08-02T09:00:00Z,30.2791,-87.5561,1.45,28.18,1111122 
DISL,ioos:station:DISL:PPTA:1,2017-08-02T09:30:00Z,30.2791,-87.5561,1.46,28.22,1111122 
DISL,ioos:station:DISL:PPTA:1,2017-08-02T10:00:00Z,30.2791,-87.5561,1.475,27.49,1111122 
DISL,ioos:station:DISL:PPTA:1,2017-08-02T10:30:00Z,30.2791,-87.5561,1.498,27.8,1111122 
DISL,ioos:station:DISL:PPTA:1,2017-08-02T11:00:00Z,30.2791,-87.5561,1.49,27.12,1111122 
DISL,ioos:station:DISL:PPTA:1,2017-08-02T11:30:00Z,30.2791,-87.5561,1.489,26.96,1111122 
DISL,ioos:station:DISL:PPTA:1,2017-08-02T12:00:00Z,30.2791,-87.5561,1.5,27.21,1111122 
DISL,ioos:station:DISL:PPTA:1,2017-08-02T12:30:00Z,30.2791,-87.5561,1.508,27.56,1111122 
DISL,ioos:station:DISL:PPTA:1,2017-08-02T13:00:00Z,30.2791,-87.5561,1.503,27.37,1111122 
DISL,ioos:station:DISL:PPTA:1,2017-08-02T13:30:00Z,30.2791,-87.5561,1.512,26.88,1111122 
DISL,ioos:station:DISL:PPTA:1,2017-08-02T14:00:00Z,30.2791,-87.5561,1.518,27.98,1111122 
DISL,ioos:station:DISL:PPTA:1,2017-08-02T14:30:00Z,30.2791,-87.5561,1.503,27.12,1111122 
DISL,ioos:station:DISL:PPTA:1,2017-08-02T15:00:00Z,30.2791,-87.5561,1.489,28.42,1111122 
DISL,ioos:station:DISL:PPTA:1,2017-08-02T15:30:00Z,30.2791,-87.5561,1.452,28.02,1111122 
DISL,ioos:station:DISL:PPTA:1,2017-08-02T16:00:00Z,30.2791,-87.5561,1.463,24.29,1111122 
DISL,ioos:station:DISL:PPTA:1,2017-08-02T16:30:00Z,30.2791,-87.5561,1.457,23.73,1111122 
DISL,ioos:station:DISL:PPTA:1,2017-08-02T17:00:00Z,30.2791,-87.5561,1.446,21.77,1111122 
DISL,ioos:station:DISL:PPTA:1,2017-08-02T17:30:00Z,30.2791,-87.5561,1.423,23.33,1111122 
DISL,ioos:station:DISL:PPTA:1,2017-08-02T18:00:00Z,30.2791,-87.5561,1.411,19.5,1111122 
DISL,ioos:station:DISL:PPTA:1,2017-08-02T18:30:00Z,30.2791,-87.5561,1.408,18.79,1111122 
DISL,ioos:station:DISL:PPTA:1,2017-08-02T19:00:00Z,30.2791,-87.5561,1.403,19.0,1111122 
DISL,ioos:station:DISL:PPTA:1,2017-08-02T19:30:00Z,30.2791,-87.5561,1.36,18.64,1111122 
DISL,ioos:station:DISL:PPTA:1,2017-08-02T20:00:00Z,30.2791,-87.5561,1.355,16.88,1111122 
DISL,ioos:station:DISL:PPTA:1,2017-08-02T20:30:00Z,30.2791,-87.5561,1.356,17.1,1111122 
DISL,ioos:station:DISL:PPTA:1,2017-08-02T21:00:00Z,30.2791,-87.5561,1.333,16.95,1111122 
DISL,ioos:station:DISL:PPTA:1,2017-08-02T21:30:00Z,30.2791,-87.5561,1.317,16.77,1111122 
DISL,ioos:station:DISL:PPTA:1,2017-08-02T22:00:00Z,30.2791,-87.5561,1.303,16.1,1111122 
DISL,ioos:station:DISL:PPTA:1,2017-08-02T22:30:00Z,30.2791,-87.5561,1.319,14.58,1111122 
DISL,ioos:station:DISL:PPTA:1,2017-08-02T23:00:00Z,30.2791,-87.5561,1.312,17.29,1111122 
DISL,ioos:station:DISL:PPTA:1,2017-08-02T23:30:00Z,30.2791,-87.5561,1.305,15.37,1111122 
DISL,ioos:station:DISL:PPTA:1,2017-08-03T00:00:00Z,30.2791,-87.5561,1.306,14.87,1111122 
DISL,ioos:station:DISL:PPTA:1,2017-08-03T00:30:00Z,30.2791,-87.5561,1.3,15.77,1111122 
DISL,ioos:station:DISL:PPTA:1,2017-08-03T01:00:00Z,30.2791,-87.5561,1.295,18.29,1111122 
DISL,ioos:station:DISL:PPTA:1,2017-08-03T01:30:00Z,30.2791,-87.5561,1.305,18.52,1111122 
DISL,ioos:station:DISL:PPTA:1,2017-08-03T02:00:00Z,30.2791,-87.5561,1.296,15.83,1111122 
DISL,ioos:station:DISL:PPTA:1,2017-08-03T02:30:00Z,30.2791,-87.5561,1.287,15.4,1111122 
DISL,ioos:station:DISL:PPTA:1,2017-08-03T03:00:00Z,30.2791,-87.5561,1.307,16.81,1111122 
DISL,ioos:station:DISL:PPTA:1,2017-08-03T03:30:00Z,30.2791,-87.5561,1.331,17.83,1111122 
DISL,ioos:station:DISL:PPTA:1,2017-08-03T04:00:00Z,30.2791,-87.5561,1.323,21.27,1111122 
DISL,ioos:station:DISL:PPTA:1,2017-08-03T04:30:00Z,30.2791,-87.5561,1.338,25.59,1111122 
DISL,ioos:station:DISL:PPTA:1,2017-08-03T05:00:00Z,30.2791,-87.5561,1.347,25.84,1111122 
DISL,ioos:station:DISL:PPTA:1,2017-08-03T05:30:00Z,30.2791,-87.5561,1.352,25.87,1111122 
DISL,ioos:station:DISL:PPTA:1,2017-08-03T06:00:00Z,30.2791,-87.5561,1.371,26.16,1111122 
DISL,ioos:station:DISL:PPTA:1,2017-08-03T06:30:00Z,30.2791,-87.5561,1.392,26.35,1111122 
DISL,ioos:station:DISL:PPTA:1,2017-08-03T07:00:00Z,30.2791,-87.5561,1.387,25.76,1111122 
DISL,ioos:station:DISL:PPTA:1,2017-08-03T07:30:00Z,30.2791,-87.5561,1.403,26.31,1111122 
DISL,ioos:station:DISL:PPTA:1,2017-08-03T08:00:00Z,30.2791,-87.5561,1.433,25.23,1111122 
DISL,ioos:station:DISL:PPTA:1,2017-08-03T08:30:00Z,30.2791,-87.5561,1.462,25.63,1111122 
DISL,ioos:station:DISL:PPTA:1,2017-08-03T09:00:00Z,30.2791,-87.5561,1.474,25.43,1111122 
DISL,ioos:station:DISL:PPTA:1,2017-08-03T09:30:00Z,30.2791,-87.5561,1.492,26.83,1111122 
DISL,ioos:station:DISL:PPTA:1,2017-08-03T10:00:00Z,30.2791,-87.5561,1.509,23.8,1111122 
DISL,ioos:station:DISL:PPTA:1,2017-08-03T10:30:00Z,30.2791,-87.5561,1.507,26.39,1111122 
DISL,ioos:station:DISL:PPTA:1,2017-08-03T11:00:00Z,30.2791,-87.5561,1.52,26.07,1111122 
DISL,ioos:station:DISL:PPTA:1,2017-08-03T11:30:00Z,30.2791,-87.5561,1.534,26.4,1111122 
DISL,ioos:station:DISL:PPTA:1,2017-08-03T12:00:00Z,30.2791,-87.5561,1.547,27.46,1111122 
DISL,ioos:station:DISL:PPTA:1,2017-08-03T12:30:00Z,30.2791,-87.5561,1.549,26.51,1111122 
DISL,ioos:station:DISL:PPTA:1,2017-08-03T13:00:00Z,30.2791,-87.5561,1.557,27.36,1111122 
DISL,ioos:station:DISL:PPTA:1,2017-08-03T13:30:00Z,30.2791,-87.5561,1.565,27.47,1111122 
DISL,ioos:station:DISL:PPTA:1,2017-08-03T14:00:00Z,30.2791,-87.5561,1.517,26.67,1111122 
DISL,ioos:station:DISL:PPTA:1,2017-08-03T14:30:00Z,30.2791,-87.5561,1.527,26.47,1111122 
DISL,ioos:station:DISL:PPTA:1,2017-08-03T15:00:00Z,30.2791,-87.5561,1.549,28.84,1111122 
DISL,ioos:station:DISL:PPTA:1,2017-08-03T15:30:00Z,30.2791,-87.5561,1.512,28.24,1111122 
DISL,ioos:station:DISL:PPTA:1,2017-08-03T16:00:00Z,30.2791,-87.5561,1.538,27.66,1111122 
DISL,ioos:station:DISL:PPTA:1,2017-08-03T16:30:00Z,30.2791,-87.5561,1.512,25.04,1111122 
DISL,ioos:station:DISL:PPTA:1,2017-08-03T17:00:00Z,30.2791,-87.5561,1.491,24.94,1111122 
DISL,ioos:station:DISL:PPTA:1,2017-08-03T17:30:00Z,30.2791,-87.5561,1.498,23.7,1111122 
DISL,ioos:station:DISL:PPTA:1,2017-08-03T18:00:00Z,30.2791,-87.5561,1.455,21.16,1111122 
DISL,ioos:station:DISL:PPTA:1,2017-08-03T18:30:00Z,30.2791,-87.5561,1.454,20.26,1111122 
DISL,ioos:station:DISL:PPTA:1,2017-08-03T19:00:00Z,30.2791,-87.5561,1.421,19.47,1111122 
DISL,ioos:station:DISL:PPTA:1,2017-08-03T19:30:00Z,30.2791,-87.5561,1.406,22.4,1111122 
DISL,ioos:station:DISL:PPTA:1,2017-08-03T20:00:00Z,30.2791,-87.5561,1.411,20.64,1111122 
DISL,ioos:station:DISL:PPTA:1,2017-08-03T20:30:00Z,30.2791,-87.5561,1.379,19.29,1111122 
DISL,ioos:station:DISL:PPTA:1,2017-08-03T21:00:00Z,30.2791,-87.5561,1.392,17.54,1111122 
DISL,ioos:station:DISL:PPTA:1,2017-08-03T21:30:00Z,30.2791,-87.5561,1.365,19.04,1111122 
DISL,ioos:station:DISL:PPTA:1,2017-08-03T22:00:00Z,30.2791,-87.5561,1.349,17.04,1111122 
DISL,ioos:station:DISL:PPTA:1,2017-08-03T22:30:00Z,30.2791,-87.5561,1.374,17.13,1111122 
DISL,ioos:station:DISL:PPTA:1,2017-08-03T23:00:00Z,30.2791,-87.5561,1.346,16.83,1111122 
DISL,ioos:station:DISL:PPTA:1,2017-08-03T23:30:00Z,30.2791,-87.5561,1.309,16.47,1111122 
DISL,ioos:station:DISL:PPTA:1,2017-08-04T00:00:00Z,30.2791,-87.5561,1.294,16.02,1111122 
DISL,ioos:station:DISL:PPTA:1,2017-08-04T00:30:00Z,30.2791,-87.5561,1.3,15.26,1111122 
DISL,ioos:station:DISL:PPTA:1,2017-08-04T01:00:00Z,30.2791,-87.5561,1.297,15.22,1111122 
DISL,ioos:station:DISL:PPTA:1,2017-08-04T01:30:00Z,30.2791,-87.5561,1.309,18.25,1111122 
DISL,ioos:station:DISL:PPTA:1,2017-08-04T02:00:00Z,30.2791,-87.5561,1.313,19.29,1111122 
DISL,ioos:station:DISL:PPTA:1,2017-08-04T02:30:00Z,30.2791,-87.5561,1.316,17.77,1111122 
DISL,ioos:station:DISL:PPTA:1,2017-08-04T03:00:00Z,30.2791,-87.5561,1.326,16.89,1111122 
DISL,ioos:station:DISL:PPTA:1,2017-08-04T03:30:00Z,30.2791,-87.5561,1.315,16.81,1111122 
DISL,ioos:station:DISL:PPTA:1,2017-08-04T04:00:00Z,30.2791,-87.5561,1.299,18.19,1111122 
DISL,ioos:station:DISL:PPTA:1,2017-08-04T04:30:00Z,30.2791,-87.5561,1.324,20.31,1111122 
DISL,ioos:station:DISL:PPTA:1,2017-08-04T05:00:00Z,30.2791,-87.5561,1.317,25.41,1111122 
DISL,ioos:station:DISL:PPTA:1,2017-08-04T05:30:00Z,30.2791,-87.5561,1.322,25.56,1111122 
DISL,ioos:station:DISL:PPTA:1,2017-08-04T06:00:00Z,30.2791,-87.5561,1.349,25.82,1111122 
DISL,ioos:station:DISL:PPTA:1,2017-08-04T06:30:00Z,30.2791,-87.5561,1.351,24.05,1111122 
DISL,ioos:station:DISL:PPTA:1,2017-08-04T07:00:00Z,30.2791,-87.5561,1.358,23.5,1111122 
DISL,ioos:station:DISL:PPTA:1,2017-08-04T07:30:00Z,30.2791,-87.5561,1.388,24.39,1111122 
DISL,ioos:station:DISL:PPTA:1,2017-08-04T08:00:00Z,30.2791,-87.5561,1.403,23.03,1111122 
DISL,ioos:station:DISL:PPTA:1,2017-08-04T08:30:00Z,30.2791,-87.5561,1.404,22.68,1111122 
DISL,ioos:station:DISL:PPTA:1,2017-08-04T09:00:00Z,30.2791,-87.5561,1.425,24.07,1111122 
DISL,ioos:station:DISL:PPTA:1,2017-08-04T09:30:00Z,30.2791,-87.5561,1.443,23.65,1111122 
DISL,ioos:station:DISL:PPTA:1,2017-08-04T10:00:00Z,30.2791,-87.5561,1.445,25.02,1111122 
DISL,ioos:station:DISL:PPTA:1,2017-08-04T10:30:00Z,30.2791,-87.5561,1.47,25.12,1111122 
DISL,ioos:station:DISL:PPTA:1,2017-08-04T11:00:00Z,30.2791,-87.5561,1.486,24.49,1111122 
DISL,ioos:station:DISL:PPTA:1,2017-08-04T11:30:00Z,30.2791,-87.5561,1.513,25.4,1111122 
DISL,ioos:station:DISL:PPTA:1,2017-08-04T12:00:00Z,30.2791,-87.5561,1.54,25.45,1111122 
DISL,ioos:station:DISL:PPTA:1,2017-08-04T12:30:00Z,30.2791,-87.5561,1.533,24.75,1111122 
DISL,ioos:station:DISL:PPTA:1,2017-08-04T13:00:00Z,30.2791,-87.5561,1.536,26.2,1111122 
DISL,ioos:station:DISL:PPTA:1,2017-08-04T13:30:00Z,30.2791,-87.5561,1.566,26.04,1111122 
DISL,ioos:station:DISL:PPTA:1,2017-08-04T14:00:00Z,30.2791,-87.5561,1.584,27.44,1111122 
DISL,ioos:station:DISL:PPTA:1,2017-08-04T14:30:00Z,30.2791,-87.5561,1.572,26.7,1111122 
DISL,ioos:station:DISL:PPTA:1,2017-08-04T15:00:00Z,30.2791,-87.5561,1.557,23.77,1111122 
DISL,ioos:station:DISL:PPTA:1,2017-08-04T15:30:00Z,30.2791,-87.5561,1.554,23.77,1111122 
DISL,ioos:station:DISL:PPTA:1,2017-08-04T16:00:00Z,30.2791,-87.5561,1.555,23.69,1111122 
DISL,ioos:station:DISL:PPTA:1,2017-08-04T16:30:00Z,30.2791,-87.5561,1.516,23.18,1111122 
DISL,ioos:station:DISL:PPTA:1,2017-08-04T17:00:00Z,30.2791,-87.5561,1.548,23.15,1111122 
DISL,ioos:station:DISL:PPTA:1,2017-08-04T17:30:00Z,30.2791,-87.5561,1.505,22.6,1111122 
DISL,ioos:station:DISL:PPTA:1,2017-08-04T18:00:00Z,30.2791,-87.5561,1.503,20.76,1111122 
DISL,ioos:station:DISL:PPTA:1,2017-08-04T18:30:00Z,30.2791,-87.5561,1.46,22.04,1111122 
DISL,ioos:station:DISL:PPTA:1,2017-08-04T19:00:00Z,30.2791,-87.5561,1.429,21.73,1111122 
DISL,ioos:station:DISL:PPTA:1,2017-08-04T19:30:00Z,30.2791,-87.5561,1.458,18.84,1111122 
DISL,ioos:station:DISL:PPTA:1,2017-08-04T20:00:00Z,30.2791,-87.5561,1.448,20.39,1111122 
DISL,ioos:station:DISL:PPTA:1,2017-08-04T20:30:00Z,30.2791,-87.5561,1.41,19.54,1111122 
DISL,ioos:station:DISL:PPTA:1,2017-08-04T21:00:00Z,30.2791,-87.5561,1.411,16.99,1111122 
DISL,ioos:station:DISL:PPTA:1,2017-08-04T21:30:00Z,30.2791,-87.5561,1.383,18.13,1111122 
DISL,ioos:station:DISL:PPTA:1,2017-08-04T22:00:00Z,30.2791,-87.5561,1.358,16.9,1111122 
DISL,ioos:station:DISL:PPTA:1,2017-08-04T22:30:00Z,30.2791,-87.5561,1.367,15.24,1111122 
DISL,ioos:station:DISL:PPTA:1,2017-08-04T23:00:00Z,30.2791,-87.5561,1.327,21.02,1111122 
DISL,ioos:station:DISL:PPTA:1,2017-08-04T23:30:00Z,30.2791,-87.5561,1.302,16.73,1111122 
DISL,ioos:station:DISL:PPTA:1,2017-08-05T00:00:00Z,30.2791,-87.5561,1.307,19.25,1111122 
DISL,ioos:station:DISL:PPTA:1,2017-08-05T00:30:00Z,30.2791,-87.5561,1.301,18.46,1111122 
DISL,ioos:station:DISL:PPTA:1,2017-08-05T01:00:00Z,30.2791,-87.5561,1.344,14.14,1111122 
DISL,ioos:station:DISL:PPTA:1,2017-08-05T01:30:00Z,30.2791,-87.5561,1.305,17.47,1111122 
DISL,ioos:station:DISL:PPTA:1,2017-08-05T02:00:00Z,30.2791,-87.5561,1.332,14.31,1111122 
DISL,ioos:station:DISL:PPTA:1,2017-08-05T02:30:00Z,30.2791,-87.5561,1.319,16.52,1111122 
DISL,ioos:station:DISL:PPTA:1,2017-08-05T03:00:00Z,30.2791,-87.5561,1.359,14.14,1111122 
DISL,ioos:station:DISL:PPTA:1,2017-08-05T03:30:00Z,30.2791,-87.5561,1.383,14.11,1111122 
DISL,ioos:station:DISL:PPTA:1,2017-08-05T04:00:00Z,30.2791,-87.5561,1.372,19.65,1111122 
DISL,ioos:station:DISL:PPTA:1,2017-08-05T04:30:00Z,30.2791,-87.5561,1.371,14.68,1111122 
DISL,ioos:station:DISL:PPTA:1,2017-08-05T05:00:00Z,30.2791,-87.5561,1.373,21.82,1111122 
DISL,ioos:station:DISL:PPTA:1,2017-08-05T05:30:00Z,30.2791,-87.5561,1.381,18.09,1111122 
DISL,ioos:station:DISL:PPTA:1,2017-08-05T06:00:00Z,30.2791,-87.5561,1.384,20.54,1111122 
DISL,ioos:station:DISL:PPTA:1,2017-08-05T06:30:00Z,30.2791,-87.5561,1.4,19.33,1111122 
DISL,ioos:station:DISL:PPTA:1,2017-08-05T07:00:00Z,30.2791,-87.5561,1.411,17.05,1111122 
DISL,ioos:station:DISL:PPTA:1,2017-08-05T07:30:00Z,30.2791,-87.5561,1.425,18.72,1111122 
DISL,ioos:station:DISL:PPTA:1,2017-08-05T08:00:00Z,30.2791,-87.5561,1.428,18.44,1111122 
DISL,ioos:station:DISL:PPTA:1,2017-08-05T08:30:00Z,30.2791,-87.5561,1.45,24.79,1111122 
DISL,ioos:station:DISL:PPTA:1,2017-08-05T09:00:00Z,30.2791,-87.5561,1.451,25.92,1111122 
DISL,ioos:station:DISL:PPTA:1,2017-08-05T09:30:00Z,30.2791,-87.5561,1.474,26.5,1111122 
DISL,ioos:station:DISL:PPTA:1,2017-08-05T10:00:00Z,30.2791,-87.5561,1.491,26.17,1111122 
DISL,ioos:station:DISL:PPTA:1,2017-08-05T10:30:00Z,30.2791,-87.5561,1.506,26.23,1111122 
DISL,ioos:station:DISL:PPTA:1,2017-08-05T11:00:00Z,30.2791,-87.5561,1.526,27.47,1111122 
DISL,ioos:station:DISL:PPTA:1,2017-08-05T11:30:00Z,30.2791,-87.5561,1.541,26.45,1111122 
DISL,ioos:station:DISL:PPTA:1,2017-08-05T12:00:00Z,30.2791,-87.5561,1.554,27.15,1111122 
DISL,ioos:station:DISL:PPTA:1,2017-08-05T12:30:00Z,30.2791,-87.5561,1.561,27.72,1111122 
DISL,ioos:station:DISL:PPTA:1,2017-08-05T13:00:00Z,30.2791,-87.5561,1.569,27.47,1111122 
DISL,ioos:station:DISL:PPTA:1,2017-08-05T13:30:00Z,30.2791,-87.5561,1.576,27.67,1111122 
DISL,ioos:station:DISL:PPTA:1,2017-08-05T14:00:00Z,30.2791,-87.5561,1.58,27.51,1111122 
DISL,ioos:station:DISL:PPTA:1,2017-08-05T14:30:00Z,30.2791,-87.5561,1.584,28.21,1111122 
DISL,ioos:station:DISL:PPTA:1,2017-08-05T15:00:00Z,30.2791,-87.5561,1.559,28.04,1111122 
DISL,ioos:station:DISL:PPTA:1,2017-08-05T15:30:00Z,30.2791,-87.5561,1.557,29.42,1111122 
DISL,ioos:station:DISL:PPTA:1,2017-08-05T16:00:00Z,30.2791,-87.5561,1.543,29.67,1111122 
DISL,ioos:station:DISL:PPTA:1,2017-08-05T16:30:00Z,30.2791,-87.5561,1.56,24.05,1111122 
DISL,ioos:station:DISL:PPTA:1,2017-08-05T17:00:00Z,30.2791,-87.5561,1.54,22.15,1111122 
DISL,ioos:station:DISL:PPTA:1,2017-08-05T17:30:00Z,30.2791,-87.5561,1.514,28.77,1111122 
DISL,ioos:station:DISL:PPTA:1,2017-08-05T18:00:00Z,30.2791,-87.5561,1.509,25.48,1111122 
DISL,ioos:station:DISL:PPTA:1,2017-08-05T18:30:00Z,30.2791,-87.5561,1.476,23.25,1111122 
DISL,ioos:station:DISL:PPTA:1,2017-08-05T19:00:00Z,30.2791,-87.5561,1.473,21.71,1111122 
DISL,ioos:station:DISL:PPTA:1,2017-08-05T19:30:00Z,30.2791,-87.5561,1.45,23.49,1111122 
DISL,ioos:station:DISL:PPTA:1,2017-08-05T20:00:00Z,30.2791,-87.5561,1.422,19.96,1111122 
DISL,ioos:station:DISL:PPTA:1,2017-08-05T20:30:00Z,30.2791,-87.5561,1.406,23.13,1111122 
DISL,ioos:station:DISL:PPTA:1,2017-08-05T21:00:00Z,30.2791,-87.5561,1.384,21.56,1111122 
DISL,ioos:station:DISL:PPTA:1,2017-08-05T21:30:00Z,30.2791,-87.5561,1.381,18.76,1111122 
DISL,ioos:station:DISL:PPTA:1,2017-08-05T22:00:00Z,30.2791,-87.5561,1.363,17.9,1111122 
DISL,ioos:station:DISL:PPTA:1,2017-08-05T22:30:00Z,30.2791,-87.5561,1.347,18.3,1111122 
DISL,ioos:station:DISL:PPTA:1,2017-08-05T23:00:00Z,30.2791,-87.5561,1.335,17.14,1111122 
DISL,ioos:station:DISL:PPTA:1,2017-08-05T23:30:00Z,30.2791,-87.5561,1.337,16.59,1111122 
DISL,ioos:station:DISL:PPTA:1,2017-08-06T00:00:00Z,30.2791,-87.5561,1.348,14.98,1111122 
DISL,ioos:station:DISL:PPTA:1,2017-08-06T00:30:00Z,30.2791,-87.5561,1.327,15.27,1111122 
DISL,ioos:station:DISL:PPTA:1,2017-08-06T01:00:00Z,30.2791,-87.5561,1.317,14.85,1111122 
DISL,ioos:station:DISL:PPTA:1,2017-08-06T01:30:00Z,30.2791,-87.5561,1.313,15.43,1111122 
DISL,ioos:station:DISL:PPTA:1,2017-08-06T02:00:00Z,30.2791,-87.5561,1.303,14.96,1111122 
DISL,ioos:station:DISL:PPTA:1,2017-08-06T02:30:00Z,30.2791,-87.5561,1.316,17.78,1111122 
DISL,ioos:station:DISL:PPTA:1,2017-08-06T03:00:00Z,30.2791,-87.5561,1.328,12.62,1111122 
DISL,ioos:station:DISL:PPTA:1,2017-08-06T03:30:00Z,30.2791,-87.5561,1.313,20.65,1111122 
DISL,ioos:station:DISL:PPTA:1,2017-08-06T04:00:00Z,30.2791,-87.5561,1.34,11.91,1111122 
DISL,ioos:station:DISL:PPTA:1,2017-08-06T04:30:00Z,30.2791,-87.5561,1.334,15.19,1111122 
DISL,ioos:station:DISL:PPTA:1,2017-08-06T05:00:00Z,30.2791,-87.5561,1.336,15.39,1111122 
DISL,ioos:station:DISL:PPTA:1,2017-08-06T05:30:00Z,30.2791,-87.5561,1.34,14.63,1111122 
DISL,ioos:station:DISL:PPTA:1,2017-08-06T06:00:00Z,30.2791,-87.5561,1.342,14.28,1111122 
DISL,ioos:station:DISL:PPTA:1,2017-08-06T06:30:00Z,30.2791,-87.5561,1.356,17.44,1111122 
DISL,ioos:station:DISL:PPTA:1,2017-08-06T07:00:00Z,30.2791,-87.5561,1.352,22.25,1111122 
DISL,ioos:station:DISL:PPTA:1,2017-08-06T07:30:00Z,30.2791,-87.5561,1.346,25.55,1111122 
DISL,ioos:station:DISL:PPTA:1,2017-08-06T08:00:00Z,30.2791,-87.5561,1.347,29.28,1111122 
DISL,ioos:station:DISL:PPTA:1,2017-08-06T08:30:00Z,30.2791,-87.5561,1.364,29.62,1111122 
DISL,ioos:station:DISL:PPTA:1,2017-08-06T09:00:00Z,30.2791,-87.5561,1.392,26.4,1111122 
DISL,ioos:station:DISL:PPTA:1,2017-08-06T09:30:00Z,30.2791,-87.5561,1.4,27.99,1111122 
DISL,ioos:station:DISL:PPTA:1,2017-08-06T10:00:00Z,30.2791,-87.5561,1.43,26.87,1111122 
DISL,ioos:station:DISL:PPTA:1,2017-08-06T10:30:00Z,30.2791,-87.5561,1.468,26.35,1111122 
DISL,ioos:station:DISL:PPTA:1,2017-08-06T11:00:00Z,30.2791,-87.5561,1.481,25.89,1111122 
DISL,ioos:station:DISL:PPTA:1,2017-08-06T11:30:00Z,30.2791,-87.5561,1.506,26.6,1111122 
DISL,ioos:station:DISL:PPTA:1,2017-08-06T12:00:00Z,30.2791,-87.5561,1.516,25.75,1111122 
DISL,ioos:station:DISL:PPTA:1,2017-08-06T12:30:00Z,30.2791,-87.5561,1.544,26.09,1111122 
DISL,ioos:station:DISL:PPTA:1,2017-08-06T13:00:00Z,30.2791,-87.5561,1.547,26.8,1111122 
DISL,ioos:station:DISL:PPTA:1,2017-08-06T13:30:00Z,30.2791,-87.5561,1.546,27.35,1111122 
DISL,ioos:station:DISL:PPTA:1,2017-08-06T14:00:00Z,30.2791,-87.5561,1.556,27.57,1111122 